{"data":{"norad_id":52996,"intl_designator":"2022-076L","name":"STARLINK-4295","alt_names":[],"object_type":"PAYLOAD","status":"ACTIVE","operator":null,"country":"US","launch_date":"2022-07-07","launch_site_code":"AFETR","launch_vehicle":null,"mission":null,"orbit_class":"UNKNOWN","rcs_meters":null,"size_class":null,"mass_kg":null,"dimensions":null,"purposes":["comms"],"wikipedia_slug":null,"has_3d_model":false,"image_url":null,"decayed_at":null,"tle_current":{"epoch":"2026-09-19T17:09:43.338816Z","epoch_age_seconds":136798,"freshness":"FRESH","line1":"1 52996U 22076L   26262.71508494  .00000359  00000+0  21757-4 0  9996","line2":"2 52996  53.1590 287.7322 0001405  66.8136 293.3014 15.34387244232344","mean_motion":15.34387244,"eccentricity":0.0001405,"inclination_deg":53.159,"raan_deg":287.7322,"arg_perigee_deg":66.8136,"mean_anomaly_deg":293.3014,"bstar":2.1757e-5,"rev_number":23234,"period_min":93.848538276821,"perigee_km":461.78001060933,"apogee_km":463.70229737061,"semimajor_km":6840.87815399,"source":"CELESTRAK","updated_at":"2026-09-20T09:00:40.140593Z"}}}